Weather History for Tomahawk, WI

Change the Weather History Date:

Friday, November 1, 2013

  Actual Average (KRHI) Record (KRHI)
Temperature  
Mean Temperature 40 °F 38 °F  
Max Temperature 43 °F 46 °F 74 °F (1933)
Min Temperature 36 °F 29 °F 10 °F (1951)
Degree Days  
Heating Degree Days 26 27  
Month to date heating degree days 27  
Since 1 July heating degree days 1120  
Cooling Degree Days 0 0  
Month to date cooling degree days 0  
Year to date cooling degree days 261  
Moisture  
Dew Point 38 °F    
Average Humidity 93    
Maximum Humidity 97    
Minimum Humidity 88    
Precipitation  
Precipitation 0.03 in 0.07 in 1.40 in (1945)
Month to date precipitation 0.07  
Year to date precipitation 28.19  
Snow  
Snow 0.00 in - 2.00 in (1911)
Month to date snowfall  
Since 1 July snowfall  
Since 1 September snowfall  
Snow Depth -    
Sea Level Pressure  
Sea Level Pressure 29.49 in    
Wind  
Wind Speed 7 mph (WNW)    
Max Wind Speed 12 mph    
Max Gust Speed 17 mph    
Visibility 8 miles    
Events Rain    
T = Trace of Precipitation, MM = Missing Value Source: NWS Daily Summary

Daily Weather History Graph

Daily Weather History Graph

Search for Another Location

Airport:

Trip Planner

Search our weather history database for the weather conditions in past years. The results will help you decide how hot, cold, wet, or windy it might be!

Date:

Astronomy

Nov. 01, 2013 Rise Set
Actual Time 7:39 AM CDT 5:45 PM CDT
Civil Twilight 7:08 AM CDT 6:16 PM CDT
Nautical Twilight 6:33 AM CDT 6:51 PM CDT
Astronomical Twilight 5:58 AM CDT 7:26 PM CDT
Moon 5:26 AM CDT (11/1) 4:42 PM CDT (11/1)
Length of Visible Light 11h 08m
Length of Day
10h 06m
Waning Crescent, 4% of the Moon is Illuminated
Nov 1
Waning Crescent
Nov 3
New
Nov 9
First Quarter
Nov 17
Full
Nov 25
Last Quarter

Hourly Weather History & Observations

Time (CDT) Temp. Windchill Dew Point Humidity Pressure Visibility Wind Dir Wind Speed Gust Speed Precip Events Conditions
12:15 AM 43.7 °F 39.7 °F 42.8 °F 97% 29.24 in 2.5 mi WNW 6.9 mph - N/A   Light Drizzle
12:35 AM 43.7 °F 38.1 °F 42.4 °F 95% 29.24 in 2.0 mi NW 10.4 mph - N/A   Drizzle
12:55 AM 43.3 °F 39.2 °F 42.1 °F 95% 29.24 in 4.0 mi NW 6.9 mph - N/A   Overcast
1:15 AM 43.2 °F 39.0 °F 41.9 °F 95% 29.25 in 10.0 mi WNW 6.9 mph - N/A   Overcast
1:35 AM 42.8 °F 39.3 °F 41.4 °F 95% 29.26 in 5.0 mi WNW 5.8 mph - N/A   Overcast
1:55 AM 42.8 °F 38.6 °F 41.2 °F 94% 29.26 in 7.0 mi NW 6.9 mph - 0.01 in Rain Light Rain
2:15 AM 42.4 °F 38.1 °F 41.0 °F 95% 29.27 in 5.0 mi NW 6.9 mph - 0.01 in Rain Rain
2:35 AM 42.4 °F 37.5 °F 41.0 °F 95% 29.27 in 7.0 mi WNW 8.1 mph - 0.02 in   Overcast
2:55 AM 42.4 °F 37.0 °F 41.0 °F 95% 29.28 in 10.0 mi NW 9.2 mph - 0.02 in   Overcast
3:15 AM 42.4 °F 38.8 °F 41.0 °F 95% 29.28 in 10.0 mi WNW 5.8 mph - N/A   Overcast
3:35 AM 42.4 °F 38.8 °F 41.0 °F 95% 29.29 in 10.0 mi WNW 5.8 mph - N/A   Overcast
3:55 AM 42.4 °F 37.5 °F 41.0 °F 95% 29.30 in 5.0 mi WNW 8.1 mph - N/A   Overcast
4:15 AM 42.4 °F 36.5 °F 41.0 °F 95% 29.31 in 10.0 mi NW 10.4 mph - N/A   Overcast
4:35 AM 41.9 °F 35.4 °F 40.3 °F 94% 29.32 in 7.0 mi NW 11.5 mph 17.3 mph N/A   Overcast
4:55 AM 41.5 °F 35.9 °F 40.1 °F 95% 29.33 in 10.0 mi NW 9.2 mph 16.1 mph N/A   Overcast
5:15 AM 41.5 °F 37.1 °F 39.7 °F 93% 29.34 in 10.0 mi WNW 6.9 mph - N/A   Overcast
5:35 AM 41.4 °F 36.8 °F 39.6 °F 93% 29.35 in 10.0 mi WNW 6.9 mph - N/A   Overcast
5:55 AM 41.0 °F 36.4 °F 39.2 °F 93% 29.36 in 10.0 mi WNW 6.9 mph - N/A   Overcast
6:15 AM 41.2 °F 35.5 °F 39.4 °F 93% 29.37 in 10.0 mi WNW 9.2 mph - N/A   Overcast
6:35 AM 41.0 °F 36.4 °F 39.4 °F 94% 29.37 in 10.0 mi WNW 6.9 mph - N/A   Overcast
6:55 AM 40.8 °F 35.6 °F 39.2 °F 94% 29.38 in 7.0 mi WNW 8.1 mph - N/A   Overcast
7:15 AM 40.6 °F 34.3 °F 39.2 °F 95% 29.39 in 10.0 mi WNW 10.4 mph - N/A   Overcast
7:35 AM 40.5 °F 34.6 °F 38.8 °F 94% 29.41 in 7.0 mi WNW 9.2 mph - N/A   Overcast
7:55 AM 40.5 °F 36.5 °F 38.8 °F 94% 29.42 in 3.0 mi WNW 5.8 mph - N/A   Overcast
8:15 AM 40.3 °F 35.5 °F 38.8 °F 95% 29.43 in 5.0 mi WNW 6.9 mph - N/A   Light Drizzle
8:35 AM 40.1 °F 34.7 °F 38.7 °F 95% 29.44 in 10.0 mi WNW 8.1 mph - N/A   Overcast
8:55 AM 40.3 °F 35.5 °F 38.5 °F 93% 29.45 in 10.0 mi WNW 6.9 mph - N/A   Overcast
9:15 AM 40.1 °F 34.1 °F 38.5 °F 94% 29.46 in 7.0 mi WNW 9.2 mph - N/A   Overcast
9:35 AM 40.1 °F 35.3 °F 38.3 °F 93% 29.46 in 3.0 mi WNW 6.9 mph - N/A   Overcast
9:55 AM 39.7 °F 35.6 °F 38.3 °F 95% 29.47 in 3.0 mi WNW 5.8 mph - N/A   Light Drizzle
10:15 AM 39.6 °F 35.4 °F 38.3 °F 95% 29.47 in 3.0 mi WNW 5.8 mph - N/A   Overcast
10:35 AM 39.6 °F 33.5 °F 38.3 °F 95% 29.48 in 4.0 mi WNW 9.2 mph - N/A   Light Drizzle
10:55 AM 40.1 °F 35.3 °F 38.5 °F 94% 29.49 in 10.0 mi NW 6.9 mph - N/A   Overcast
11:15 AM 40.1 °F 35.3 °F 37.9 °F 92% 29.49 in 10.0 mi NW 6.9 mph - N/A   Overcast
11:35 AM 40.1 °F 36.9 °F 37.6 °F 91% 29.50 in 10.0 mi NW 4.6 mph - N/A   Overcast
11:55 AM 40.1 °F 36.9 °F 37.4 °F 90% 29.51 in 10.0 mi NW 4.6 mph - N/A   Overcast
12:15 PM 40.3 °F 36.3 °F 37.9 °F 91% 29.51 in 7.0 mi West 5.8 mph - N/A   Overcast
12:35 PM 40.1 °F 34.7 °F 37.8 °F 91% 29.51 in 7.0 mi WNW 8.1 mph - N/A   Overcast
12:55 PM 39.9 °F 35.1 °F 37.8 °F 92% 29.52 in 3.0 mi WNW 6.9 mph - N/A   Light Drizzle
1:15 PM 40.1 °F 34.7 °F 38.3 °F 93% 29.53 in 3.0 mi West 8.1 mph - N/A   Overcast
1:35 PM 40.8 °F 36.2 °F 39.0 °F 93% 29.53 in 10.0 mi West 6.9 mph - N/A   Overcast
1:55 PM 41.4 °F 36.2 °F 38.5 °F 89% 29.53 in 10.0 mi West 8.1 mph - N/A   Overcast
2:15 PM 41.2 °F 36.0 °F 37.9 °F 88% 29.54 in 10.0 mi West 8.1 mph - N/A   Overcast
2:35 PM 40.5 °F 35.8 °F 37.4 °F 89% 29.55 in 7.0 mi West 6.9 mph - N/A   Overcast
2:55 PM 40.1 °F 36.1 °F 37.8 °F 91% 29.56 in 4.0 mi West 5.8 mph - N/A   Drizzle
3:15 PM 39.7 °F 36.5 °F 37.9 °F 93% 29.57 in 2.5 mi West 4.6 mph - N/A Rain Light Rain
4:55 PM 39.4 °F 36.1 °F 37.6 °F 93% 29.61 in 7.0 mi WNW 4.6 mph - N/A   Overcast
5:15 PM 39.2 °F 35.0 °F 37.4 °F 93% 29.62 in 7.0 mi WNW 5.8 mph - N/A   Overcast
5:35 PM 39.2 °F 37.0 °F 37.4 °F 93% 29.63 in 7.0 mi WNW 3.5 mph - N/A   Overcast
5:55 PM 39.2 °F 37.0 °F 37.6 °F 94% 29.64 in 5.0 mi WNW 3.5 mph - N/A   Drizzle
6:15 PM 39.2 °F - 37.6 °F 94% 29.65 in 7.0 mi Calm Calm - N/A   Light Drizzle
6:35 PM 39.2 °F 35.9 °F 37.6 °F 94% 29.65 in 4.0 mi WNW 4.6 mph - N/A   Drizzle
6:55 PM 38.8 °F 35.4 °F 37.4 °F 95% 29.66 in 7.0 mi WNW 4.6 mph - N/A   Drizzle
7:15 PM 38.7 °F 34.3 °F 37.4 °F 95% 29.67 in 10.0 mi WNW 5.8 mph - N/A   Overcast
7:35 PM 38.8 °F 34.6 °F 37.4 °F 95% 29.68 in 10.0 mi WNW 5.8 mph - N/A   Overcast
7:55 PM 38.7 °F 35.2 °F 37.2 °F 95% 29.68 in 7.0 mi NW 4.6 mph - N/A   Light Drizzle
8:15 PM 38.5 °F 32.7 °F 36.7 °F 93% 29.69 in 10.0 mi NW 8.1 mph - N/A   Overcast
8:35 PM 38.3 °F 31.9 °F 36.0 °F 91% 29.69 in 10.0 mi NW 9.2 mph - N/A   Overcast
8:55 PM 38.3 °F 33.2 °F 35.6 °F 90% 29.70 in 10.0 mi NW 6.9 mph - N/A   Overcast
9:15 PM 37.9 °F 34.4 °F 35.8 °F 92% 29.70 in 10.0 mi NW 4.6 mph - N/A   Overcast
9:35 PM 37.9 °F 33.5 °F 36.0 °F 93% 29.71 in 10.0 mi WNW 5.8 mph - N/A   Overcast
9:55 PM 37.8 °F 33.3 °F 36.0 °F 93% 29.71 in 7.0 mi WNW 5.8 mph - N/A   Overcast
10:15 PM 37.6 °F 34.0 °F 35.8 °F 93% 29.72 in 7.0 mi WNW 4.6 mph - N/A   Overcast
10:35 PM 37.6 °F 33.1 °F 35.8 °F 93% 29.72 in 7.0 mi NW 5.8 mph - N/A   Overcast
10:55 PM 37.4 °F 32.8 °F 35.6 °F 93% 29.73 in 10.0 mi NNW 5.8 mph - N/A   Overcast
11:15 PM 37.0 °F 33.3 °F 35.2 °F 93% 29.73 in 7.0 mi NNW 4.6 mph - N/A   Light Drizzle
11:35 PM 36.9 °F 31.4 °F 35.2 °F 94% 29.73 in 10.0 mi NW 6.9 mph - N/A   Overcast
11:55 PM 36.9 °F 31.4 °F 35.1 °F 93% 29.73 in 10.0 mi NW 6.9 mph - N/A   Overcast